Dewpoint
71 72 71 72 73 75 75 72 60 63 63 53 53 59 57 63 62 59 60 62 60 63 65 64 60 61 61 60 62 62 62 60 60 57 57 66 69 67 69 71 71 71 73 74 75 76 77 78 78 78 79 79 79 79 79 79 79 79 78 78 78 79 78 78 77 77 77 77 77 76 77 77 77 77 76 77 77 76 76 75 75 74 74 75 74 74 74 75 75 76 76 75 75 74 74 75 75
69 71 71 72 74 73 66 69 61 58 61 57 56 59 59 63 63 62 61 63 63 64 64 65 61 62 61 60 61 63 62 64 61 63 64 66 66 66 71 71 70 71 72 74 74 74 76 77 78 79 78 79 79 79 79 79 79 79 78 78 78 79 78 77 77 77 77 77 77 76 77 77 77 77 77 77 77 77 76 75 75 75 75 75 75 75 75 75 75 75 76 75 74 74 74 74 74
71 72 74 75 75 73 69 69 56 56 54 53 57 61 62 59 59 61 63 65 66 67 67 64 63 63 61 63 62 62 60 65 62 63 63 65 66 68 69 71 71 71 72 73 73 74 76 77 78 78 79 79 79 78 78 78 78 78 78 78 78 78 78 77 77 77 77 77 77 77 77 77 77 77 77 77 77 77 77 75 75 75 75 75 75 75 75 75 75 75 75 75 75 75 74 75 74
72 74 76 74 70 71 65 64 55 50 50 56 54 59 62 61 61 63 64 65 66 65 65 63 62 64 62 62 63 64 64 67 67 62 63 64 68 68 68 69 73 71 71 71 74 74 75 77 78 78 78 78 78 78 78 78 78 78 78 78 78 78 78 77 77 77 77 77 77 77 76 77 77 77 77 77 77 77 77 76 76 76 76 75 75 75 75 75 75 75 75 75 75 75 75 75 75
70 71 73 70 69 62 61 56 56 53 51 52 54 59 60 62 62 63 64 66 66 64 64 64 60 63 64 64 67 64 63 67 68 65 63 66 67 66 66 68 71 70 70 71 73 74 75 77 78 78 78 78 78 78 78 78 78 78 78 78 78 78 77 77 77 77 77 77 77 77 76 77 77 77 77 76 76 77 77 76 76 76 76 76 75 76 75 75 75 75 75 75 75 75 75 75 75
71 70 71 68 64 65 63 56 54 54 57 59 58 58 62 62 63 63 64 65 65 64 65 63 63 62 63 64 65 64 66 68 66 66 65 68 66 67 67 69 69 69 69 71 72 75 76 78 78 78 78 78 78 78 78 78 78 78 78 78 78 77 77 77 77 76 76 77 77 77 77 77 77 76 77 77 77 77 76 76 77 76 76 75 75 76 75 76 75 75 75 75 75 75 75 75 75
68 68 70 69 68 67 54 51 54 55 58 59 60 62 62 63 64 64 64 62 61 64 64 63 62 63 61 63 64 67 68 68 69 65 65 65 66 67 68 69 70 68 70 72 74 75 76 79 78 78 78 78 78 78 78 78 78 78 77 77 77 77 77 77 76 76 76 76 76 77 77 76 76 76 76 76 77 77 77 76 76 76 76 76 75 76 76 75 75 75 75 75 75 75 75 75 74
66 64 64 61 58 61 52 53 56 57 58 62 62 62 64 64 65 65 64 63 62 62 64 63 63 63 64 67 63 65 69 71 69 65 65 66 66 67 68 66 68 69 70 72 74 75 78 79 78 78 78 78 78 78 78 78 78 78 77 77 77 76 76 76 76 76 76 76 76 77 76 76 76 76 76 76 77 77 77 76 76 76 76 76 76 76 76 75 75 76 76 75 75 75 75 74 74
64 65 68 65 58 59 49 50 55 60 60 62 63 66 66 65 65 64 63 64 63 65 64 64 63 60 61 64 64 66 70 65 64 66 66 65 65 64 65 67 68 69 70 72 75 76 77 78 78 78 78 78 78 78 77 78 78 78 77 77 77 76 76 76 75 76 76 76 76 76 76 76 76 76 76 76 76 76 76 77 76 76 76 76 76 76 76 75 75 76 75 75 75 74 74 74 74
60 66 59 60 56 48 48 50 53 57 59 62 62 64 63 63 63 63 62 62 63 64 65 65 64 62 64 63 63 66 65 64 63 66 65 65 65 64 65 67 67 68 67 73 74 74 75 78 78 78 78 78 78 78 78 77 78 77 77 77 77 77 76 76 76 75 76 76 76 76 76 76 76 76 76 76 76 76 77 77 76 76 76 75 76 76 75 75 75 75 75 75 75 74 75 74 75
56 65 64 59 48 45 46 49 51 56 61 63 63 63 64 63 62 62 62 61 65 65 64 65 64 64 65 63 64 65 64 64 63 62 62 63 64 64 66 66 65 66 67 71 73 73 74 75 78 78 78 77 77 77 78 77 77 77 77 76 77 77 76 76 76 75 75 76 76 76 76 76 76 76 76 76 76 76 76 77 77 76 76 76 76 76 75 75 75 75 75 75 75 75 74 74 74
52 52 59 48 45 44 44 46 50 50 54 60 61 63 65 64 63 61 62 61 64 63 63 63 60 66 64 64 64 67 63 63 63 63 63 62 62 62 63 64 64 65 66 70 73 73 73 75 76 78 77 78 77 77 77 77 77 77 77 77 76 76 76 76 76 76 75 75 75 75 76 75 76 76 76 76 76 76 76 76 76 76 76 76 76 76 76 76 75 75 75 75 75 75 75 75 75
51 52 45 42 41 42 44 46 48 52 56 57 60 63 63 63 62 62 61 62 59 61 63 63 61 65 62 63 66 67 64 64 63 64 63 62 62 62 62 63 64 65 66 68 70 71 71 75 75 77 77 77 78 77 77 77 77 77 77 77 77 77 77 76 76 76 75 76 75 75 76 76 76 76 76 76 76 77 76 76 76 76 76 76 76 76 76 76 76 75 75 75 74 75 75 75 75
50 49 45 47 44 41 40 43 48 46 49 60 63 63 63 62 62 63 61 60 60 61 63 64 63 64 62 63 65 66 62 62 64 62 62 62 62 61 61 61 63 64 65 66 66 68 70 72 74 75 77 77 77 77 77 77 77 77 77 77 77 76 76 76 76 76 76 76 76 76 75 75 75 76 76 76 76 76 77 76 76 76 76 77 76 76 76 76 76 76 75 75 75 75 75 75 74
44 43 43 47 42 41 44 41 43 45 49 60 62 63 63 62 65 61 61 60 61 63 65 65 62 63 58 62 63 65 63 63 62 62 62 62 62 62 61 60 62 62 64 64 66 67 68 69 73 75 77 76 76 76 77 76 77 77 77 77 77 77 77 77 77 76 76 76 76 75 75 75 75 75 76 76 76 76 76 77 76 77 77 76 77 76 76 76 76 75 76 75 75 74 74 75 75
39 36 40 42 41 42 42 42 47 47 54 61 64 64 63 64 65 63 63 62 62 65 66 63 65 64 61 63 64 64 63 62 62 62 61 61 63 62 61 61 61 61 62 62 64 66 67 67 70 73 75 75 76 76 76 76 76 77 76 77 77 77 77 77 77 76 76 76 76 76 76 75 75 75 76 75 76 76 76 76 76 77 77 76 76 76 76 76 76 76 75 75 75 75 75 75 75
40 39 39 40 42 43 43 44 45 45 58 60 62 60 60 62 62 63 66 67 63 63 64 64 66 66 66 64 64 64 64 63 65 63 62 62 63 61 61 61 62 61 60 62 63 65 66 66 68 72 74 74 75 76 77 77 76 77 77 77 77 77 77 77 76 76 76 76 76 76 76 76 76 76 76 76 76 76 76 76 76 76 77 77 77 77 76 76 76 76 76 75 75 75 75 75 75
35 38 38 39 40 41 44 46 46 48 51 58 61 60 60 61 62 62 65 62 63 63 63 64 64 66 64 64 65 65 64 63 63 63 62 62 61 60 60 60 62 61 58 62 62 63 65 66 67 70 72 73 74 76 77 77 77 76 76 77 76 77 77 77 76 76 77 77 76 77 77 76 77 77 77 76 76 76 75 76 76 76 76 77 77 77 77 77 77 77 76 76 76 75 75 74 73
33 38 40 40 42 44 48 48 52 52 51 55 59 60 59 55 57 59 59 56 62 62 63 64 61 62 64 65 65 65 64 64 64 63 63 61 61 59 61 61 61 60 59 61 63 61 65 66 66 68 69 72 75 76 76 76 77 77 77 76 76 76 77 77 77 77 77 77 77 77 77 77 78 77 77 77 76 75 75 75 76 76 76 76 77 77 77 77 77 76 77 77 77 77 75 75 73
33 39 38 40 42 45 48 51 50 52 50 49 55 58 60 56 55 57 54 53 57 61 61 62 61 62 63 64 66 65 65 64 66 66 64 64 70 70 69 66 67 69 67 60 62 60 62 67 67 68 70 73 75 75 76 76 77 77 77 76 76 76 76 76 77 77 77 77 77 78 79 78 76 76 75 77 76 76 75 75 75 76 76 76 76 76 76 76 76 76 76 76 76 76 75 74 71
31 37 40 44 43 44 44 48 52 51 48 51 52 57 56 55 56 52 56 57 56 61 63 63 63 64 63 65 66 67 66 66 68 66 64 64 67 70 71 68 68 70 72 69 68 62 59 63 63 66 69 74 75 75 76 77 77 77 75 75 76 75 75 75 75 76 76 77 77 78 78 78 75 75 75 76 77 77 76 76 75 75 75 76 76 76 75 75 75 76 75 75 75 75 73 72 69
28 34 39 41 41 39 43 46 50 48 55 53 47 47 54 54 51 53 52 54 54 60 60 65 67 66 66 65 66 66 66 68 68 67 66 66 67 68 68 67 70 70 75 71 70 68 62 62 63 64 66 73 74 75 75 76 77 76 75 75 75 75 75 75 75 75 75 78 77 77 77 77 75 75 75 75 75 76 76 75 75 75 74 74 75 75 75 75 76 75 75 75 74 74 73 72 69
30 33 37 40 42 43 45 49 48 49 48 47 43 46 44 47 51 51 52 54 55 65 61 65 67 68 67 67 66 66 68 68 69 68 69 70 69 70 71 69 69 68 67 69 67 69 66 63 63 64 64 67 73 73 74 76 75 75 75 75 75 75 75 75 74 74 78 79 77 77 77 76 75 75 75 75 75 76 76 75 75 75 74 74 76 74 75 76 76 75 75 74 74 72 71 70 72
29 32 38 43 43 42 46 49 53 54 54 49 50 46 45 48 49 51 54 54 57 65 67 67 68 68 69 69 68 68 67 67 68 69 69 70 70 69 69 70 70 69 71 71 69 68 68 66 67 66 66 66 69 69 74 75 74 73 74 74 75 74 74 74 74 74 77 75 76 76 77 77 76 76 76 76 76 76 76 76 75 74 75 76 75 76 74 74 75 76 75 75 73 73 72 71 69
31 30 34 39 45 45 44 45 51 58 58 55 54 50 50 44 46 50 51 53 60 60 65 67 67 70 68 68 69 69 68 67 67 68 70 69 70 70 70 71 71 71 71 73 72 71 69 68 69 68 67 69 67 67 67 72 72 72 72 73 73 73 74 73 73 75 75 76 75 75 76 76 76 76 76 76 77 76 76 76 76 77 76 76 74 75 75 73 74 74 74 73 73 72 71 70 71
24 32 35 41 43 44 46 47 48 49 51 57 54 53 50 46 47 50 50 53 57 59 64 61 65 65 67 68 69 68 69 68 68 69 69 69 70 70 70 71 71 72 73 73 73 73 74 74 71 68 70 74 76 72 74 72 71 70 72 75 77 76 73 73 74 75 76 76 76 77 76 75 76 76 76 76 76 75 75 76 76 76 75 76 76 75 76 75 75 73 74 73 72 72 71 70 71
22 31 36 36 40 44 44 44 45 48 52 54 53 52 50 48 47 51 52 55 56 59 60 58 62 65 66 68 68 68 70 68 70 71 68 69 70 70 70 71 71 72 73 73 73 73 74 74 74 74 70 75 76 75 77 75 73 76 76 78 77 76 76 75 76 76 76 75 74 75 76 76 74 76 76 76 75 75 75 76 76 76 76 76 75 74 74 73 75 74 73 73 72 73 72 72 71
20 35 35 37 39 43 44 44 46 48 49 53 53 52 53 55 53 51 52 55 55 58 61 63 63 68 67 66 68 70 66 67 72 69 70 69 68 70 69 70 72 73 73 74 73 74 73 74 74 75 74 75 73 72 75 75 77 76 77 77 76 77 77 76 76 75 76 76 75 75 77 76 76 76 75 75 74 75 76 75 75 75 74 75 75 74 74 73 73 74 73 73 73 72 72 72 71
23 28 33 35 37 40 44 46 50 54 48 52 55 52 52 55 53 50 52 54 57 59 62 65 66 63 62 64 66 68 67 66 69 67 69 68 71 73 71 70 72 72 74 74 73 74 74 73 73 74 75 74 74 74 76 75 77 74 73 73 75 75 77 77 76 75 76 76 76 75 75 75 75 75 76 76 75 75 75 74 74 74 75 75 75 73 73 74 72 73 74 73 72 72 72 71 69
26 30 31 31 37 40 42 49 51 51 52 53 53 44 47 54 54 53 55 52 52 54 58 58 64 63 60 64 64 65 67 66 67 67 69 70 71 72 71 72 72 74 72 72 73 74 74 74 74 74 73 73 74 76 75 75 74 75 75 72 75 74 76 77 76 76 77 76 76 76 75 75 75 75 75 75 75 75 75 74 74 74 74 74 74 74 74 74 73 73 72 73 73 73 73 72 71
23 32 30 32 33 37 41 38 54 48 50 50 48 45 48 54 54 54 54 52 52 52 56 57 59 61 62 64 63 63 66 66 65 68 70 69 71 70 71 72 71 72 72 72 73 74 74 73 73 72 73 73 74 75 75 74 74 74 75 77 75 75 77 76 76 76 76 76 75 77 76 76 76 75 75 74 74 75 75 74 74 74 74 73 73 73 73 74 73 72 73 72 72 72 73 72 71
24 28 34 32 24 35 40 40 45 38 48 46 46 46 49 49 50 52 59 59 55 55 50 56 59 61 62 62 61 59 59 64 66 66 67 69 70 69 69 70 70 72 72 73 74 73 73 73 72 71 73 73 74 75 75 76 75 75 77 76 76 75 76 75 76 76 76 77 76 76 75 74 74 74 75 75 75 75 75 74 75 75 74 74 73 74 74 73 73 73 73 73 71 71 73 72 72
15 17 14 25 22 37 39 41 40 42 50 46 45 38 50 48 49 55 56 56 54 49 48 48 51 55 57 59 58 54 55 57 60 64 67 67 70 70 69 71 71 72 72 73 73 73 73 72 73 71 71 74 75 75 75 75 75 75 74 74 75 76 76 76 76 77 76 76 76 75 75 75 75 73 74 75 75 75 75 74 75 75 74 73 74 75 74 74 73 72 73 73 73 72 73 71 71
11 16 14 16 28 32 34 36 39 42 43 40 40 40 42 48 49 50 53 54 57 52 47 46 50 51 52 52 52 52 56 55 61 62 65 67 67 70 69 72 71 71 72 73 73 73 73 73 73 73 72 74 75 75 75 75 74 74 74 75 75 75 75 76 76 75 75 76 76 76 76 74 73 73 72 74 74 73 74 74 74 74 74 74 74 74 74 75 74 73 72 73 73 72 71 70 70
9 8 7 5 23 22 30 31 35 41 42 35 38 43 40 46 48 51 51 51 52 48 47 47 49 48 50 49 49 53 54 55 55 60 62 65 69 66 66 70 70 70 72 72 72 74 74 74 75 74 73 74 75 74 74 74 74 74 74 74 74 74 75 75 76 76 75 76 74 76 75 74 73 74 74 74 74 74 75 75 75 75 74 74 74 74 74 74 73 73 72 73 73 73 73 71 71
7 3 2 4 1 17 27 29 37 37 37 35 35 37 42 43 48 51 51 50 52 50 49 48 48 48 50 53 52 54 56 57 62 58 62 66 68 68 68 67 70 71 72 72 72 72 73 73 74 74 74 75 74 74 74 75 75 75 74 73 72 73 75 75 76 75 75 76 75 75 74 74 74 75 74 74 74 74 74 73 73 74 75 74 73 73 74 73 72 72 72 72 72 72 73 72 71
7 3 4 4 -3 15 16 29 35 36 34 33 39 36 36 38 47 52 52 53 55 52 51 51 51 51 52 52 54 56 59 61 61 63 65 66 69 68 70 70 71 72 73 73 73 72 72 72 72 72 74 74 74 73 74 74 74 74 74 72 72 72 72 75 75 76 75 76 75 75 74 75 74 72 74 75 74 75 75 75 75 75 75 74 73 73 73 73 73 73 72 72 72 71 70 70 71
8 6 4 2 6 6 17 24 29 41 28 32 37 38 39 43 48 50 54 53 49 49 50 50 50 50 56 56 56 59 58 61 63 64 66 69 70 70 70 71 73 72 73 74 73 73 73 73 73 73 74 74 73 74 74 75 74 75 74 74 73 72 72 73 74 76 76 74 75 76 74 73 74 74 75 75 74 74 74 73 74 75 74 74 74 72 72 73 73 72 72 72 72 71 70 71 71
7 6 3 0 2 2 26 26 30 32 27 40 37 34 37 41 48 49 50 49 51 51 52 50 51 55 55 57 56 58 59 62 64 65 69 69 71 70 69 70 70 71 70 69 73 74 74 74 75 74 75 73 72 73 75 74 75 73 73 72 72 72 74 74 75 75 77 76 76 77 76 75 75 76 75 75 74 74 73 73 72 74 74 73 73 72 73 73 74 73 72 71 71 71 71 71 72
9 7 7 1 -4 -6 24 34 29 38 22 40 41 33 33 43 47 49 50 49 54 61 56 50 51 55 53 53 55 55 59 60 62 64 67 68 70 70 68 68 68 66 69 68 70 70 72 74 74 74 74 73 74 74 74 75 74 72 71 71 71 71 72 74 73 74 75 75 76 75 75 74 76 75 74 75 74 73 74 73 73 73 74 73 74 73 73 73 72 73 72 72 71 69 70 70 71
2 1 3 4 -4 -6 -6 31 31 30 32 27 31 36 37 44 42 47 57 57 59 57 58 56 56 59 57 56 56 56 58 60 60 65 67 66 67 68 69 69 68 68 68 68 69 70 72 71 73 74 74 73 72 74 74 74 75 74 72 71 71 72 74 76 74 74 75 75 75 76 77 75 75 75 74 73 73 73 74 74 72 74 74 74 74 73 72 72 72 73 72 73 72 71 70 69 71
5 3 2 2 1 -2 -6 -5 -4 3 22 28 29 24 31 45 42 47 55 55 55 58 59 59 61 58 56 53 55 59 61 61 61 64 65 66 66 67 67 68 68 68 68 70 70 71 71 72 73 74 75 74 72 73 75 75 75 76 75 75 73 74 73 72 72 72 72 74 76 76 75 75 75 74 75 75 74 74 72 73 73 73 74 75 74 73 73 73 73 73 73 73 72 72 70 70 70
-1 3 3 6 5 1 -2 -2 -0 7 13 29 20 22 28 46 45 46 51 52 54 56 59 60 62 61 56 57 57 60 62 63 61 63 66 64 65 66 67 67 67 68 69 71 71 71 71 72 73 73 73 74 73 74 74 75 75 75 73 72 72 72 71 73 75 75 74 77 75 75 76 76 75 75 74 75 74 73 73 73 72 73 74 74 75 75 73 72 72 73 73 74 72 72 72 70 70
-0 5 5 4 1 -1 -1 3 4 11 9 10 15 18 23 36 43 43 48 52 56 56 57 60 61 59 54 57 57 60 63 65 65 65 66 66 66 66 66 68 68 69 70 72 71 72 72 73 71 72 73 74 74 74 74 75 74 74 73 73 73 72 71 73 73 74 75 76 76 74 76 78 76 75 75 75 73 73 72 73 74 75 74 74 75 74 73 72 73 74 74 73 73 73 72 70 70
1 3 4 1 -4 -0 5 9 11 12 10 16 15 20 31 40 44 46 52 53 55 55 56 57 60 58 56 56 59 61 63 65 65 65 65 67 67 67 67 68 68 69 71 71 71 71 71 72 73 73 74 74 74 74 74 74 74 74 74 73 73 73 72 73 72 72 74 74 72 75 74 75 75 75 76 75 75 74 75 75 74 75 75 76 75 73 72 72 72 72 74 73 72 74 72 72 72
6 6 5 -0 0 3 9 10 12 18 22 22 21 21 26 35 46 45 45 52 54 54 56 56 58 57 61 60 60 62 65 65 66 66 68 67 67 67 67 68 69 69 71 72 72 72 72 72 73 73 73 74 74 74 74 74 74 74 74 73 72 73 73 74 73 73 74 75 74 74 74 76 74 73 74 74 75 74 74 75 74 73 75 75 76 73 73 73 72 72 71 73 72 73 73 73 71
8 4 0 -1 0 4 7 12 20 20 25 26 19 16 16 32 45 44 45 43 51 55 56 57 57 58 59 60 57 65 63 64 66 68 68 67 68 69 70 69 70 70 70 71 71 71 71 72 73 72 73 74 73 72 73 73 73 73 73 73 72 72 72 72 73 73 73 73 73 73 74 74 75 73 74 75 73 75 73 74 75 72 73 76 77 75 76 73 72 75 72 73 73 72 72 73 72
5 3 3 2 8 17 20 19 33 24 18 18 14 14 14 20 52 47 45 48 49 55 56 56 57 57 59 60 59 58 64 65 67 67 68 67 68 70 70 70 70 70 70 69 69 70 70 71 72 71 71 72 71 71 71 71 71 71 72 71 71 71 71 70 70 70 71 72 72 73 74 75 73 73 75 74 72 71 74 75 74 73 76 76 75 75 75 75 73 73 74 74 74 74 74 73 72
5 5 9 4 11 13 12 17 15 18 19 17 12 14 25 27 37 33 41 44 45 50 54 55 56 58 59 60 57 58 64 64 65 66 67 67 67 67 68 69 69 68 69 69 69 67 67 69 69 69 70 71 72 71 71 71 71 70 70 70 70 71 70 69 70 67 69 70 71 71 72 73 74 73 73 72 72 71 73 73 73 74 73 74 76 75 75 75 75 74 73 73 73 71 73 73 73
8 7 5 8 10 11 15 12 15 13 11 10 13 23 23 35 35 41 38 40 46 49 51 56 56 56 59 58 58 59 63 63 63 64 66 67 67 67 68 68 68 69 67 67 67 66 66 66 68 68 70 71 71 70 70 70 70 70 71 70 70 69 68 67 68 68 68 70 70 70 70 69 71 71 70 71 71 70 71 70 72 74 75 75 75 75 75 75 75 75 74 74 73 73 73 72 72
7 8 -4 3 15 3 13 14 15 12 14 10 15 18 31 26 44 41 38 40 43 50 49 53 58 59 60 58 59 61 60 61 65 65 67 66 67 67 67 67 67 67 66 64 66 66 65 65 67 68 69 69 70 70 70 70 70 70 71 71 70 70 69 68 69 70 70 69 70 68 70 68 67 69 72 73 73 73 72 73 74 74 74 75 75 75 74 74 75 75 74 74 74 73 73 73 72
5 2 3 2 12 14 12 12 12 12 14 18 25 31 39 44 46 44 44 39 44 48 52 57 57 58 57 57 57 60 61 63 66 66 66 65 66 67 66 66 66 65 65 64 63 65 64 66 67 68 68 68 69 69 69 69 69 69 69 70 69 70 70 69 70 70 70 69 69 69 68 68 68 69 70 70 70 70 70 72 72 72 74 74 74 74 75 74 74 73 74 74 73 73 72 72 72
2 -1 3 5 9 9 12 12 13 17 18 24 21 36 40 43 48 48 48 52 55 55 54 58 59 59 59 58 60 59 62 63 66 67 63 63 61 63 62 62 61 61 62 62 64 63 65 65 65 67 67 67 68 68 68 69 68 68 68 68 68 67 65 63 65 66 67 68 69 69 67 68 68 69 67 67 70 69 70 70 70 70 72 74 75 74 74 73 74 74 73 74 73 73 73 72 71
2 1 1 4 7 9 14 11 19 15 16 22 18 20 35 41 44 46 49 53 55 56 58 58 62 62 61 61 62 64 65 65 66 65 64 58 59 57 56 56 58 58 60 61 65 63 65 64 63 65 66 66 66 67 67 67 67 67 67 66 66 67 64 65 66 67 67 67 68 68 69 67 68 68 67 69 69 68 70 70 69 69 69 71 73 74 74 73 74 73 73 73 72 73 72 72 71
4 1 5 5 11 14 18 14 16 17 19 21 19 34 49 50 49 48 49 51 56 57 59 60 60 61 61 61 63 64 65 65 66 66 65 60 56 55 57 56 57 60 60 61 64 64 62 61 63 65 66 66 66 66 67 67 67 67 66 67 64 66 67 68 67 67 67 67 66 67 67 68 68 68 68 69 68 67 68 68 70 68 67 68 69 71 74 73 73 74 73 73 73 72 72 72 73
5 11 9 8 14 16 20 19 20 21 18 17 22 39 45 52 53 50 53 54 56 56 58 59 61 62 62 62 63 64 64 64 66 64 55 53 52 52 53 55 56 58 58 60 61 62 61 60 60 64 66 67 67 67 67 67 66 67 66 68 67 68 69 68 67 67 65 66 66 67 68 66 66 67 68 68 67 68 68 68 66 65 65 65 67 67 70 73 74 73 72 72 72 73 72 71 71
4 12 15 15 13 14 16 16 17 17 20 22 22 33 47 52 56 53 53 55 55 56 59 61 61 61 63 63 64 64 64 64 66 61 55 54 54 55 56 58 61 61 60 61 61 61 61 62 59 58 63 62 64 65 66 65 66 66 66 66 66 67 67 67 67 65 65 65 67 67 66 67 68 69 68 67 67 68 68 67 68 68 68 68 69 69 69 71 73 73 73 73 73 73 72 71 71
14 13 13 13 14 18 19 22 20 20 20 25 23 44 49 55 59 57 56 57 58 59 60 61 63 63 63 64 64 63 64 67 66 57 56 57 59 58 60 61 63 63 64 62 61 63 63 62 60 60 59 61 62 60 66 66 66 65 66 65 66 67 67 67 67 68 66 64 64 66 67 67 64 67 68 66 66 66 66 67 66 67 68 68 69 69 68 68 68 69 70 70 70 71 71 72 71